North Bend, OR

10:05 PM PDT on March 26, 2017 (GMT -0700)
North Bend Municipal

Weather History for KOTH - January, 2013

Change the Weather History Date:

Tuesday, January 8, 2013

  Actual Average Record
Temperature  
Mean Temperature 52 °F 46 °F  
Max Temperature 55 °F 51 °F 64 °F (1934)
Min Temperature 48 °F 40 °F 18 °F (1937)
Degree Days  
Heating Degree Days 13 19  
Month to date heating degree days 138 154  
Since 1 July heating degree days 2013 2215  
Cooling Degree Days 0 0  
Month to date cooling degree days 0 0  
Year to date cooling degree days 0 0  
Growing Degree Days 2 (Base 50)    
Moisture  
Dew Point 50 °F    
Average Humidity 94    
Maximum Humidity 100    
Minimum Humidity 86    
Precipitation  
Precipitation 0.02 in 0.36 in 3.13 in (1959)
Month to date precipitation 0.42 2.81  
Year to date precipitation 0.42 2.81  
Sea Level Pressure  
Sea Level Pressure 30.18 in    
Wind  
Wind Speed 9 mph (SSW)    
Max Wind Speed 14 mph    
Max Gust Speed 25 mph    
Visibility 10 miles    
Events      
T = Trace of Precipitation, MM = Missing Value Source: NWS Daily Summary

Daily Weather History Graph

Daily Weather History Graph

Search for Another Location

Airport or City:

Trip Planner

Search our weather history database for the weather conditions in past years. The results will help you decide how hot, cold, wet, or windy it might be!

Date:

Astronomy

Jan. 08, 2013 Rise Set
Actual Time 7:49 AM PST 4:58 PM PST
Civil Twilight 7:17 AM PST 5:31 PM PST
Nautical Twilight 6:41 AM PST 6:06 PM PST
Astronomical Twilight 6:06 AM PST 6:41 PM PST
Moon 4:28 AM PST (1/8) 2:06 PM PST (1/8)
Length of Visible Light 10h 14m
Length of Day
9h 09m
Waning Crescent, 13% of the Moon is Illuminated
Jan 8
Waning Crescent
Jan 11
New
Jan 18
First Quarter
Jan 26
Full
Feb 3
Last Quarter

Hourly Weather History & Observations

Time (PST) Temp. Dew Point Humidity Pressure Visibility Wind Dir Wind Speed Gust Speed Precip Events Conditions
12:15 AM 50.0 °F 50.0 °F 100% 30.29 in 3.0 mi SSW 6.9 mph - N/A   Overcast
12:35 AM 50.0 °F 50.0 °F 100% 30.29 in 7.0 mi SSW 6.9 mph - 0.01 in   Overcast
12:55 AM 50.0 °F 50.0 °F 100% 30.28 in 7.0 mi SSW 6.9 mph - 0.01 in   Overcast
1:15 AM 50.0 °F 50.0 °F 100% 30.27 in 10.0 mi SSW 5.8 mph - N/A   Overcast
1:35 AM 50.0 °F 50.0 °F 100% 30.28 in 8.0 mi SSW 8.1 mph - N/A   Overcast
1:55 AM 50.0 °F 50.0 °F 100% 30.28 in 10.0 mi SSW 8.1 mph - N/A   Overcast
2:15 AM 50.0 °F 50.0 °F 100% 30.28 in 9.0 mi SSW 6.9 mph - N/A   Overcast
2:35 AM 50.0 °F 50.0 °F 100% 30.27 in 9.0 mi SSW 8.1 mph - N/A   Overcast
2:55 AM 50.0 °F 50.0 °F 100% 30.27 in 10.0 mi SSW 8.1 mph - N/A   Overcast
3:15 AM 50.0 °F 50.0 °F 100% 30.27 in 10.0 mi SSW 10.4 mph - N/A   Overcast
3:35 AM 50.0 °F 50.0 °F 100% 30.26 in 8.0 mi South 9.2 mph - N/A   Overcast
3:55 AM 50.0 °F 50.0 °F 100% 30.26 in 10.0 mi South 5.8 mph - N/A   Overcast
4:15 AM 50.0 °F 50.0 °F 100% 30.25 in 10.0 mi South 10.4 mph - N/A   Overcast
4:35 AM 50.0 °F 50.0 °F 100% 30.24 in 8.0 mi South 6.9 mph - N/A   Overcast
4:55 AM 50.0 °F 50.0 °F 100% 30.24 in 10.0 mi South 6.9 mph - N/A   Overcast
5:15 AM 51.8 °F 50.0 °F 94% 30.23 in 10.0 mi South 9.2 mph - N/A   Overcast
5:35 AM 51.8 °F 50.0 °F 94% 30.23 in 10.0 mi South 4.6 mph - N/A   Overcast
5:55 AM 51.8 °F 50.0 °F 94% 30.24 in 10.0 mi South 5.8 mph - N/A   Overcast
6:15 AM 51.8 °F 50.0 °F 94% 30.24 in 10.0 mi South 5.8 mph - 0.01 in   Overcast
6:35 AM 51.8 °F 50.0 °F 94% 30.24 in 10.0 mi South 5.8 mph - 0.01 in   Overcast
6:55 AM 51.8 °F 50.0 °F 94% 30.24 in 10.0 mi South 8.1 mph - 0.01 in   Overcast
7:15 AM 51.8 °F 50.0 °F 94% 30.24 in 10.0 mi South 9.2 mph - N/A   Overcast
7:35 AM 51.8 °F 50.0 °F 94% 30.24 in 10.0 mi SSW 15.0 mph 19.6 mph N/A   Overcast
7:55 AM 51.8 °F 50.0 °F 94% 30.25 in 10.0 mi SSW 11.5 mph - N/A   Overcast
8:15 AM 51.8 °F 50.0 °F 94% 30.24 in 10.0 mi South 12.7 mph 19.6 mph N/A   Overcast
8:35 AM 51.8 °F 50.0 °F 94% 30.25 in 10.0 mi SSW 9.2 mph - N/A   Overcast
8:55 AM 51.8 °F 50.0 °F 94% 30.25 in 10.0 mi South 10.4 mph 16.1 mph N/A   Overcast
9:15 AM 51.8 °F 50.0 °F 94% 30.26 in 10.0 mi South 9.2 mph - N/A   Overcast
9:35 AM 51.8 °F 51.8 °F 100% 30.26 in 10.0 mi South 8.1 mph - N/A   Overcast
9:55 AM 51.8 °F 51.8 °F 100% 30.25 in 10.0 mi South 9.2 mph - N/A   Overcast
10:15 AM 53.6 °F 51.8 °F 94% 30.25 in 10.0 mi South 8.1 mph - N/A   Overcast
10:55 AM 53.6 °F 51.8 °F 94% 30.24 in 10.0 mi South 8.1 mph - N/A   Overcast
11:15 AM 53.6 °F 51.8 °F 94% 30.23 in 10.0 mi SSW 9.2 mph - N/A   Overcast
11:55 AM 55.4 °F 51.8 °F 88% 30.22 in 10.0 mi SSW 10.4 mph 16.1 mph N/A   Overcast
12:15 PM 55.4 °F 51.8 °F 88% 30.21 in 10.0 mi SSW 13.8 mph 20.7 mph N/A   Overcast
12:35 PM 55.4 °F 51.8 °F 88% 30.21 in 10.0 mi SSW 16.1 mph 24.2 mph N/A   Overcast
12:55 PM 55.4 °F 51.8 °F 88% 30.21 in 10.0 mi SSW 11.5 mph 25.3 mph N/A   Overcast
1:15 PM 53.6 °F 51.8 °F 94% 30.20 in 10.0 mi SSW 12.7 mph 23.0 mph N/A   Overcast
1:35 PM 55.4 °F 51.8 °F 88% 30.20 in 10.0 mi SW 12.7 mph 23.0 mph N/A   Overcast
1:55 PM 53.6 °F 51.8 °F 94% 30.20 in 10.0 mi SW 13.8 mph 20.7 mph N/A   Overcast
2:15 PM 53.6 °F 51.8 °F 94% 30.19 in 10.0 mi SW 9.2 mph 16.1 mph N/A   Overcast
2:35 PM 53.6 °F 50.0 °F 88% 30.19 in 10.0 mi SW 11.5 mph 17.3 mph N/A   Overcast
2:55 PM 53.6 °F 50.0 °F 88% 30.19 in 10.0 mi SW 12.7 mph 17.3 mph N/A   Overcast
3:15 PM 53.6 °F 50.0 °F 88% 30.18 in 10.0 mi SSW 11.5 mph - N/A   Overcast
3:35 PM 53.6 °F 50.0 °F 88% 30.18 in 10.0 mi SSW 9.2 mph 16.1 mph N/A   Overcast
3:55 PM 53.6 °F 50.0 °F 88% 30.17 in 10.0 mi SSW 10.4 mph - N/A   Overcast
4:15 PM 53.6 °F 50.0 °F 88% 30.17 in 10.0 mi South 8.1 mph - N/A   Overcast
4:35 PM 51.8 °F 50.0 °F 94% 30.15 in 10.0 mi South 9.2 mph 16.1 mph N/A   Overcast
4:55 PM 51.8 °F 48.2 °F 88% 30.14 in 10.0 mi South 9.2 mph - N/A   Overcast
5:15 PM 51.8 °F 48.2 °F 88% 30.12 in 10.0 mi South 12.7 mph - N/A   Mostly Cloudy
5:35 PM 51.8 °F 48.2 °F 88% 30.11 in 10.0 mi South 8.1 mph - N/A   Clear
5:55 PM 50.0 °F 48.2 °F 94% 30.10 in 10.0 mi SSE 5.8 mph - N/A   Clear
6:15 PM 50.0 °F 48.2 °F 94% 30.10 in 10.0 mi South 3.5 mph - N/A   Clear
6:35 PM 50.0 °F 48.2 °F 94% 30.09 in 10.0 mi South 5.8 mph - N/A   Clear
6:55 PM 51.8 °F 48.2 °F 88% 30.08 in 10.0 mi South 6.9 mph - N/A   Clear
7:15 PM 51.8 °F 48.2 °F 88% 30.07 in 10.0 mi SSW 9.2 mph - N/A   Clear
7:35 PM 51.8 °F 48.2 °F 88% 30.07 in 10.0 mi SSW 8.1 mph - N/A   Clear
7:55 PM 51.8 °F 48.2 °F 88% 30.06 in 10.0 mi SSW 10.4 mph 16.1 mph N/A   Clear
8:15 PM 50.0 °F 48.2 °F 94% 30.06 in 10.0 mi South 4.6 mph - N/A   Clear
8:35 PM 48.2 °F 46.4 °F 93% 30.05 in 10.0 mi Calm Calm - N/A   Clear
8:55 PM 48.2 °F 46.4 °F 93% 30.05 in 10.0 mi South 3.5 mph - N/A   Clear
9:15 PM 48.2 °F 46.4 °F 93% 30.05 in 10.0 mi South 4.6 mph - N/A   Clear
9:55 PM 48.2 °F 48.2 °F 100% 30.05 in 10.0 mi SW 8.1 mph - N/A   Partly Cloudy
10:15 PM 50.0 °F 48.2 °F 94% 30.04 in 10.0 mi SW 10.4 mph 16.1 mph N/A   Mostly Cloudy
10:35 PM 50.0 °F 48.2 °F 94% 30.04 in 10.0 mi SW 16.1 mph 21.9 mph N/A   Overcast
10:55 PM 51.8 °F 48.2 °F 88% 30.04 in 10.0 mi SSW 11.5 mph 24.2 mph N/A   Overcast
11:15 PM 50.0 °F 48.2 °F 94% 30.03 in 10.0 mi SW 13.8 mph 23.0 mph N/A   Overcast
11:35 PM 50.0 °F 48.2 °F 94% 30.02 in 9.0 mi SSW 10.4 mph 25.3 mph N/A   Overcast
11:55 PM 51.8 °F 48.2 °F 88% 30.01 in 10.0 mi SSW 13.8 mph 20.7 mph N/A   Overcast